Location: Pedholt
(56.0260°N, 10.2097°E)
Time: 06:02:27
(UTC+00:00)

Transit 2A Rocket - Pass Details

Date: 05 August 2021
Orbit: 586 x 917 km, 66.7° (Epoch: 24 September)

Event Time Altitude Azimuth Distance (km) Brightness Sun altitude
Rises 17:53:31 0° 305° (NW) 3,113 9.7 10.0°
Reaches altitude 10° 17:56:03 10° 316° (NW) 2,247 8.6 9.6°
Maximum altitude 18:00:38 31° 19° (NNE) 1,357 6.4 9.0°
Drops below altitude 10° 18:05:35 10° 81° (E) 2,441 7.1 8.3°
Sets 18:08:26 0° 91° (E) 3,425 7.7 8.0°
